Contact Us:
Email: info@sawbill.com
Phone: (218)663-7150
Fax: (218)663-7980
Mail: 4620 Sawbill Trail
Box 2129
Tofte, MN 55615


Powered by
Movable Type 3.15
 
Sawbill Weather History
Check out the 7 Day Weather Forecast for the Superior National Forest.
Date High
Temperature
Low
Temperature
Barometric
Pressure
Relative
Humidity 7AM
9 AM
Temperature
Moisture Snow
5/22/15 65 34 30.18 44% 52 0
5/21/15 60 33 30.18 61% 34 0
5/20/15 62 38 30.02 49% 45 0
5/19/15 51 31 30.16 62% 38 0
5/18/15 46 30 30.18 73% 31 .22"
5/17/15 62 44 29.86 83% 44 .23"
5/16/15 65 39 29.98 92% 55 .06"
5/15/15 53 39 30.04 80% 39 0
5/14/15 55 42 30.02 91% 43 .21"
5/13/15 51 32 30.26 57% 42 0
5/12/15 41 29 30.36 85% 32 .03"
5/11/15 42 33 30.00 98% 33 .29" .25"
5/10/15 53 37 29.98 98% 37 .79"
5/9/15 48 34 30.29 62% 37 0
5/8/15 52 41 30.18 63% 42 0
5/7/15 69 44 29.96 82% 44 .22"
5/6/15 62 40 30.00 89% 56 0
5/5/15 65 34 30.16 57% 41 0
5/4/15 64 30 29.92 63% 43 0
5/3/15 71 42 30.10 65% 45 Trace
5/2/15 69 40 29.80 83% 49 .04"
5/1/15 62 37 30.02 73% 40 0
4/29/15 56 30 30.12 74% 35 0
4/28/15 60 34 30.14 69% 37 0
4/27/15 60 34 30.16 64% 38 0
4/26/15 55 26 30.20 63% 38 0
4/25/15 49 26 30.17 42% 40 0
4/24/15 41 26 30.09 32% 37 0
4/23/15 38 21 30.08 65% 26 0
4/22/15 31 17 29.92 83% 20 0
4/21/15 31 21 29.78 86% 22 .35" 4"
4/20/15 34 28 29.62 76% 28 .1" 1"
4/19/15 40 32 29.64 95% 32 .49" .5"
4/18/15 52 35 29.94 86% 35 .35"
4/17/15 64 33 30.22 60% 38 0
4/16/15 59 32 30.14 74% 35 0
4/15/15 63 34 30.12 51% 42 0
4/14/15 57 32 30.24 51% 36 0
4/13/15 51 32 30.14 40% 36 Trace Trace
4/12/15 66 36 29.92 74% 42 .35"
4/11/15 58 37 29.92 46% 53 Trace
4/10/15 39 25 30.10 61% 34 0
4/9/15 37 29 29.92 76% 32 Trace
4/8/15 34 29 30.00 73% 33 Trace Trace
4/7/15 37 27 30.16 75% 29 .14" 1.5"
4/6/15 37 20 30.30 41% 20 0
4/5/15 33 18 30.14 45% 21 0
4/4/15 32 10 30.10 45% 18 0
4/3/15 29 16 30.08 45% 24 0
4/2/15 53 16 30.08 50% 16 Trace Trace
4/1/15 42 28 29.76 38% 38 0
3/31/15 38 29 29.92 58% 29 Trace Trace
3/30/15 44 28 29.94 79% 31 Trace Trace
3/29/15 35 28 29.98 72% 28 .35" 2"
3/28/15 36 20 29.76 68% 30 Trace Trace
3/27/15 27 0 30.18 53% 20 0
3/26/15 22 -2 30.20 45% 12 0
3/25/15 35 12 30.06 62% 12 .26" 2"
3/24/15 38 18 29.86 74% 29 Trace Trace
3/23/15 32 12 30.18 69% 18 0
3/22/15 30 12 30.26 64% 18 0
3/21/15 22 9 30.28 46% 12 0
3/20/15 38 9 30.16 41% 9 0
3/19/15 37 23 30.00 64% 33 Trace Trace
3/18/15 35 16 30.14 58% 23 0
3/17/15 32 18 30.22 35% 19 0
3/16/15 40 20 30.22 43% 20 Trace
3/15/15 54 35 30.08 54% 40 0
3/14/15 42 29 30.00 77% 35 0
3/13/15 40 29 29.89 93% 33 .02" 0
3/12/15 48 28 30.06 54% 36 0
3/11/15 45 26 30.02 63% 29 0
3/10/15 51 27 30.00 88% 27 0
3/9/15 40 21 29.86 69% 36 0
3/8/15 38 19 29.92 82% 25 Trace Trace
3/7/15 26 7 30.00 86% 25 .06" .5"
3/6/15 26 11 30.00 75% 26 .07" 1"
3/5/15 12 -9 30.00 50% 11 0
3/4/15 0 -15 30.24 50% -9 0
3/3/15 24 -9 29.96 50% -9 .12" 1.5"
3/2/15 25 5 29.80 76% 20 .21" 2.5"
3/1/15 20 1 30.24 48% 5 0
2/28/15 22 -8 30.10 48% 10 Trace Trace
2/27/15 19 -9 30.10 65% 0 0
2/26/15 4 -16 30.28 61% -9 0
2/25/15 3 -16 30.28 61% -16 0
2/24/15 16 -13 30.00 61% -12 0
2/23/15 18 10 29.72 72% 16 .15" 2"
2/22/15 -7 -20 30.28 48% -10 0
2/21/15 8 -21 30.34 38% 2 0
2/20/15 11 1 30.02 48%% 2 .14" 3"
2/19/15 0 -22 29.88 70% 0 Trace Trace
2/18/15 -9 -24 30.16 38% -21 0
2/17/15 0 -18 30.00 44% -18 Trace Trace
2/16/15 10 -8 29.96 48% -5 Trace Trace
2/15/15 1 -6 30.08 60% -6 .1" 1"
2/14/15 -3 -24 30.18 63% -18 0
2/13/15 11 -14 30.20 68% -14 Trace Trace
2/12/15 7 -15 30.00 68% 7 .06" 1"
2/11/15 11 -16 30.38 68% -15 0
2/10/15 22 11 30.02 68% 11 .35" 4.5"
2/9/15 20 10 30.12 80% 16 0
2/8/15 13 -6 30.18 68% 10 Trace Trace
2/7/15 15 4 30.04 68% 6 .07" .5"
2/6/15 10 4 29.94 51% 10 .25" 3.5"
2/5/15 17 -6 30.06 51% 4 0
2/4/15 0 -11 30.10 74% -6 0
2/3/15 7 -6 30.12 74% -6 0
2/2/15 7 -17 30.00 74% -6 0
2/1/15 2 -16 30.06 74% -16 0
1/31/15 11 -13 30.28 74% -12 0
1/30/15 14 0 30.14 74% 11 .08" 1"
1/29/15 19 -2 30.36 55% 0 Trace Trace
1/28/15 29 25 30.18 84% 20 0
1/27/15 27 22 30.06 89% 25 0
1/26/15 23 19 30.10 80% 22 .08" 1"
1/25/15 19 5 29.84 84% 5 .24" 3"
1/24/15 28 0 30.04 54% 5 Trace Trace
1/23/15 24 8 29.89 65% 8 Trace Trace
1/22/15 26 19 30.02 78% 19 Trace Trace
1/21/15 23 7 30.18 67% 8 0
1/20/15 22 17 30.08 82% 22 Trace Trace
1/19/15 19 13 30.02 75% 17 0
1/18/15 24 8 30.00 64% 13 Trace Trace
1/17/15 26 20 29.82 85% 24 .25" 2.5"
1/16/15 20 -8 29.72 92% 20 Trace Trace
1/15/15 27 -12 30.10 56% -8 Trace Trace
1/14/15 24 11 29.86 91% 24 .06" .5"
1/13/15 14 -15 30.12 45% 11 Trace Trace
1/12/15 -2 -18 30.42 63% -16 0
1/11/15 0 -13 30.40 63% -13 0
1/10/15 5 -17 30.12 63% -7 0
1/9/15 -3 -11 29.98 63% -8 0
1/8/15 5 -2 30.00 63% -11 .14" 1"
1/7/15 -4 -21 30.04 54% -4 0
1/6/15 2 -22 30.02 54% -21 0
1/5/15 -4 -19 30.06 63% -5 0
1/4/15 -12 -23 30.18 63% -19 0
1/3/15 25 -19 30.12 63% -19 .22" 2.5"
1/2/15 22 -1 29.98 86% 22 .31" 3"
 


Home I Trip Planning I Rentals and Outfitting I Reservations I Campgrounds I Sawbill Store I Sawbill News I Contact

© 1997 - 2015, Sawbill Canoe Outfitters, Inc. I Privacy Policy